Weather Roundup
Issued by NWS Springfield, MO

Home | Current Version | Previous Version | Text Only | Print | Product List | Glossary On
Versions: 1 2 3 4 5 6 7 8 9 10 11 12 13 14 15 16 17 18 19 20 21 22 23 24 25 26 27 28 29 30 31 32 33 34 35 36 37 38 39 40 41 42 43 44 45 46 47 48 49 50
000
NZUS99 KSGF 011759
HRRSGF

HOURLY WEATHER
NATIONAL WEATHER SERVICE SPRINGFIELD MO
1200 PM CST SUN FEB 01 2015

......SGF CWA......

CITY           SKY/WX    TMP DP  RH WIND       PRES   REMARKS
SPRINGFIELD    LGT RAIN  40  38  93 W23G37    29.75R FOG     WCI  30
6HR MIN TEMP:  38; 6HR MAX TEMP:  44; 6HR PCP:  0.05;

JOPLIN         CLOUDY    35  32  88 NW23G31   29.86R WCI  23
6HR MIN TEMP:  35; 6HR MAX TEMP:  43; 6HR PCP:  0.07;

WEST PLAINS    CLOUDY    45  42  89 W13G21    29.70F FOG
6HR MIN TEMP:  38; 6HR MAX TEMP:  46; 6HR PCP:  0.01;

ROLLA          CLOUDY    40  38  93 W10       29.66F WCI  33
6HR MIN TEMP:  35; 6HR MAX TEMP:  40; 6HR PCP:  0.04;

OSAGE BEACH    CLOUDY    43  39  87 SW8       29.70S
BRANSON        CLOUDY    45  41  87 W15       29.75S

......SURROUNDING SGF CWA......

CITY           SKY/WX    TMP DP  RH WIND       PRES   REMARKS
CHANUTE        CLOUDY    30  24  78 NW24G36   29.93R WCI  16
PARSONS        CLOUDY    32  26  78 NW25G35   29.95R WCI  19
COFFEYVILLE    CLOUDY    33  25  72 NW23G37   29.95R WCI  21
EMPORIA        CLOUDY    23  18  81 NW26G43   29.98R WCI   6
SILOAM SPRINGS CLOUDY    37  28  70 W16       29.88R WCI  28
HARRISON AR    LGT RAIN  45  43  93 W13G24    29.75S FOG
NEAR YELLVILLE CLOUDY    48  41  76 W14G21    29.74S

......KANSAS AND MISSOURI......

CITY           SKY/WX    TMP DP  RH WIND       PRES   REMARKS
KANSAS CTY INT SNOW      29  26  89 NW21G32   29.81R VSB 1/2 WCI  16
DOWNTOWN KC    FLURRIES  33  31  92 NW22G32   29.81R WCI  21
COLUMBIA       CLOUDY    37  37 100 W10       29.68F WCI  30
SEDALIA        FRZ RAIN  36  34  92 NW13      29.73R FOG     WCI  27
ST JOSEPH      LGT SNOW  26  22  84 NW28G39   29.86R VSB 3/4 WCI  10
ST LOUIS       LGT RAIN  40  37  89 SW7       29.67F FOG
SPIRIT OF STL  CLOUDY    39  38  96 W3        29.66F FOG
KIRKSVILLE     LGT SNOW  34  33  96 N8        29.70F VSB 1   WCI  27
WICHITA        CLOUDY    25  15  66 NW30G40   30.07R WCI   8
TOPEKA         LGT SNOW  25  20  81 NW22G38   29.96R WCI  10
OLATHE         LGT SNOW  31  28  89 NW23G33   29.82R FOG     WCI  18

......TENNESSEE......

CITY           SKY/WX    TMP DP  RH WIND       PRES   REMARKS
MEMPHIS        CLOUDY    57  54  89 SW18G26   29.77F
NASHVILLE      LGT RAIN  48  45  89 S17G25    29.82F FOG

......ARKANSAS.......

CITY           SKY/WX    TMP DP  RH WIND       PRES   REMARKS
FAYETTEVILLE   CLOUDY    37  36  96 NW15G22   29.85R WCI  28
FT SMITH       CLOUDY    44  36  73 W15G26    29.89R
LITTLE ROCK    LGT RAIN  57  52  83 W10       29.79F

......OKLAHOMA.......

CITY           SKY/WX    TMP DP  RH WIND       PRES   REMARKS
TULSA          CLOUDY    42  30  62 NW29G39   29.96R
PONCA CITY     CLOUDY    30  21  69 NW21G33   30.07R WCI  17
MCALESTER      LGT RAIN  43  32  65 NW22G35   29.99R
OKLAHOMA CITY  PTSUNNY   38  26  62 NW29G37   30.05R WCI  26

......IOWA............

CITY           SKY/WX    TMP DP  RH WIND       PRES   REMARKS
DES MOINES     SNOW      22  18  85 NE25G32   29.90R VSB 1/2 WCI   5
QUAD CITIES    SNOW      27  23  85 NE18G25   29.78F VSB 1/2 WCI  14

......ILLINOIS........

CITY           SKY/WX    TMP DP  RH WIND       PRES   REMARKS
QUINCY         LGT SNOW  34  32  92 N6        29.68F FOG     WCI  29
CHICAGO        SNOW      26  24  92 NE20G26   29.82F VSB 1/2 WCI  12




USA.gov is the U.S. government's official web portal to all federal, state and local government web resources and services.